EST,Max TemperatureF,Mean TemperatureF,Min TemperatureF,Max Dew PointF,MeanDew PointF,Min DewpointF,Max Humidity, Mean Humidity, Min Humidity, Max Sea Level PressureIn, Mean Sea Level PressureIn, Min Sea Level PressureIn, Max VisibilityMiles, Mean VisibilityMiles, Min VisibilityMiles, Max Wind SpeedMPH, Mean Wind SpeedMPH, Max Gust SpeedMPH,PrecipitationIn, CloudCover, Events, WindDirDegrees
2013-12-1,30,29,28,21,18,11,75,63,47,30.37,30.31,30.25,10,10,10,9,6,,0.00,7,,0
2013-12-2,,,,,,,,,,,,,,,,,,,,,,
2013-12-3,37,34,30,31,30,27,93,85,79,29.98,29.94,29.89,8,4,1,7,2,,0.00,8,,42
2013-12-4,41,32,24,29,23,20,85,73,49,30.20,30.11,29.98,10,10,6,9,2,,0.00,1,,352
2013-12-5,39,32,25,37,33,22,93,89,78,30.20,30.01,29.89,10,4,0,6,1,,0.01,8,Fog-Rain,95
2013-12-6,43,38,33,40,36,26,100,87,60,30.12,29.96,29.86,10,5,0,8,2,,0.45,7,Fog-Rain-Snow,311
2013-12-7,33,30,26,29,20,11,88,63,42,30.45,30.25,30.09,10,10,4,14,5,22,0.00,8,Snow,318
2013-12-8,28,24,21,17,12,9,78,57,43,30.58,30.53,30.46,10,10,10,7,3,,0.00,5,,357
2013-12-9,30,27,24,27,22,8,89,82,45,30.47,30.08,29.86,10,4,1,7,3,,0.10,8,Snow,44
2013-12-10,34,28,23,25,17,5,89,62,43,29.95,29.85,29.75,10,9,2,16,4,18,0.00,6,Snow,242
2013-12-11,28,24,19,19,13,6,85,65,43,30.15,30.08,29.98,10,7,1,17,8,23,0.00,8,Snow,247
2013-12-12,19,12,6,12,2,-5,80,58,34,30.30,30.18,30.00,10,10,7,14,7,21,0.00,4,,285
2013-12-13,19,11,3,14,7,-7,81,66,55,30.46,30.07,29.90,10,6,1,12,8,22,0.01,6,Snow,296
2013-12-14,14,7,0,8,-1,-10,81,67,42,30.66,30.45,30.20,10,5,0,8,4,,0.21,5,Snow,26
2013-12-15,27,20,14,18,14,8,86,79,60,30.16,29.72,29.49,10,3,0,10,3,,0.48,7,Fog-Snow,314
2013-12-16,23,12,1,15,3,-9,84,57,36,30.25,29.95,29.69,10,9,1,21,7,33,0.00,4,Snow,272
2013-12-17,10,-4,-18,4,-5,-25,80,75,66,30.33,30.17,30.04,10,5,1,9,1,,0.06,5,Snow,175
2013-12-18,26,14,1,18,9,-4,88,78,65,30.04,30.01,29.94,10,10,8,6,1,,0.00,5,,93
2013-12-19,37,28,19,27,21,16,88,74,48,30.07,30.00,29.92,10,9,2,12,3,,0.00,7,Snow,189
2013-12-20,41,36,30,33,30,27,92,84,57,30.09,29.96,29.88,10,7,2,9,1,,0.02,8,Rain,104
2013-12-21,43,39,35,37,34,32,96,89,74,29.89,29.86,29.82,10,4,0,9,1,,0.11,8,Fog-Rain,77
2013-12-22,44,39,34,40,34,32,96,91,85,29.98,29.80,29.68,10,4,0,13,2,23,0.06,8,Fog-Rain,47
2013-12-23,36,34,33,34,32,22,96,89,61,30.14,30.01,29.95,10,4,0,13,4,,0.12,8,Fog-Rain,32
2013-12-24,33,25,14,22,13,5,71,59,42,30.27,30.16,30.07,10,10,7,12,6,,0.00,3,,329
2013-12-25,18,12,6,7,0,-5,71,57,41,30.55,30.47,30.24,10,10,10,10,6,,0.00,3,,15
2013-12-26,27,23,16,22,15,3,89,77,48,30.44,30.22,30.06,10,7,1,8,2,,0.05,7,Snow,116
2013-12-27,30,22,15,19,16,11,85,70,50,30.23,30.20,30.17,10,10,7,10,3,20,0.00,6,,217
2013-12-28,39,29,19,29,23,16,92,75,61,30.16,30.05,29.96,10,9,5,8,3,,0.00,5,,209
2013-12-29,35,28,21,31,27,20,92,88,78,30.01,29.77,29.56,9,3,0,6,1,,0.65,5,Fog-Snow,25
2013-12-30,37,20,3,31,23,-5,96,80,57,30.22,29.77,29.56,10,7,0,14,3,21,0.00,6,Fog,4
2013-12-31,14,6,-2,6,-1,-9,84,73,51,30.22,30.11,30.02,10,8,1,10,2,,0.00,5,Snow,138